ATLAS 5 CENTAUR DEB, 43972

Orbit data source: Space-Track

ATLAS 5 CENTAUR DEB, 43972 is space debris in HEO originally from a launch on Wed, 17 Sep 2014 UTC launched from the Air Force Eastern Test Range (AFETR). Debris objects in space refer to the collection of defunct objects orbiting the Earth. Examples of debris include non-operational satellites, rocket bodies, and fragments generated from explosions, collisions, or faulty payload assembly.

Loading next visibility...
Identifier
43972, 2014-055AB
Orbit
HEO
Country
Flag of USUS
Related business
Flag of USUnited Launch Alliance/Lockheed Martin (US)
Manufacturer
Unknown
Mission
Spacecraft
Bus & Motor
Unknown
Mass
Unknown
Launch date (UTC)
2014-09-17 (12 years ago)
Launch vehicle
Unknown
Launch site
Air Force Eastern Test Range (AFETR)
Object type
Payload
Rocket body
Debris
Shape & HBR
Unknown shape, 1.1 m
Radar Cross Section
Medium (>0.1 m² and <1 m²)

Expand to show TLE details & history
Last TLE update: 23 hours ago

TLE from 23 hours ago
0 ATLAS 5 CENTAUR DEB
1 43972U 14055AB  26093.38251797 -.00000039  00000-0  00000-0 0  9995
2 43972  19.9554 150.6804 4789562 151.4892 246.1938  1.85389894 51335
Epoch: 2026-04-03T09:10Z
TLE epoch observation values (Epoch: 2026-04-03T09:10:49.552Z)
Latitude
0.00002°
Longitude
-178.69415°
Altitude
30,861.041 km
Speed
2.677 km/s
True Right ascension
10h 02m 55s
True Declination
0° 00' 00"
Sunlit
Object was in daylight at epoch
Visualization orbit readout
Latitude
Unknown
Longitude
Unknown
Altitude
Unknown
Speed
Unknown
Apparent Right ascension
Unknown
Apparent Declination
Unknown
Sunlit
N/A
Visualization observer readout
Local Sidereal Time
14:27:08
Azimuth
Unknown
Elevation
Unknown
Doppler factor
Unknown
Orbital elements
Apogee altitude
35,021.497 km
Perigee altitude
8,207.165 km
Semi-major axis
27,992.468 km
Eccentricity
0.47896
Inclination
19.9554°
RAAN
150.6804°
Arg. of periapsis
151.4892°
True anomaly
208.50703°
Mean anomaly
246.1938°
Eccentric anomaly
226.34059°
Mean motion
0.46343 °/min
Orbital period
776.82 mins
BSTAR
0
Loading maneuver chart data...
Computing Atmospheric mass density...

Documentation

Showing up to 5 results
|